This is the latest recevied weather packets stored in our database for station/object K1JO. If no packets are shown the sender has not sent any weather packets the latest 10 day(s).
| Time | Temp. | Humidity | Pressure | Rain* | Wind** | Luminosity | Snow |
|---|---|---|---|---|---|---|---|
| 1777839178 | 6.11° C | 98% | 998.7 hPa | 1.27 mm | - | 93 W/m² | - |
| 1777838876 | 6.11° C | 98% | 998.7 hPa | 1.27 mm | - | 160 W/m² | - |
| 1777838572 | 6.67° C | 98% | 998.7 hPa | 0 mm | - | 117 W/m² | - |
| 1777838269 | 6.11° C | 98% | 998.8 hPa | 0 mm | - | 188 W/m² | - |
| 1777837965 | 6.11° C | 98% | 998.7 hPa | 0 mm | - | 180 W/m² | - |
| 1777837663 | 6.11° C | 98% | 998.8 hPa | 0 mm | - | 164 W/m² | - |
| 1777837358 | 6.11° C | 98% | 998.8 hPa | 0 mm | - | 187 W/m² | - |
| 1777837055 | 5.56° C | 98% | 998.8 hPa | 0 mm | - | 170 W/m² | - |
| 1777836751 | 5.56° C | 98% | 998.9 hPa | 1.78 mm | - | 164 W/m² | - |
| 1777836447 | 5.56° C | 98% | 999.1 hPa | 1.78 mm | - | 159 W/m² | - |
| 1777836142 | 5.56° C | 98% | 999.1 hPa | 0 mm | - | 154 W/m² | - |
| 1777835839 | 5.56° C | 99% | 999.4 hPa | 0 mm | - | 144 W/m² | - |
| 1777835536 | 5.56° C | 99% | 999.6 hPa | 1.27 mm | - | 163 W/m² | - |
| 1777835233 | 5.56° C | 99% | 999.5 hPa | 1.27 mm | - | 111 W/m² | - |
| 1777834930 | 5.56° C | 99% | 999.3 hPa | 0 mm | - | 143 W/m² | - |
| 1777834627 | 5.56° C | 99% | 999.4 hPa | 1.78 mm | - | 123 W/m² | - |
| 1777834322 | 5° C | 99% | 999.6 hPa | 1.78 mm | - | 121 W/m² | - |
| 1777834017 | 5° C | 99% | 999.7 hPa | 0 mm | - | 124 W/m² | - |
| 1777833714 | 5° C | 98% | 999.7 hPa | 0 mm | - | 137 W/m² | - |
| 1777833410 | 5° C | 98% | 999.7 hPa | 1.27 mm | - | 132 W/m² | - |
| 1777833108 | 5° C | 98% | 999.6 hPa | 0 mm | - | 116 W/m² | - |
| 1777832805 | 5° C | 99% | 999.7 hPa | 1.78 mm | - | 117 W/m² | - |
| 1777832504 | 5° C | 99% | 999.8 hPa | 1.78 mm | - | 116 W/m² | - |
| 1777832200 | 5° C | 99% | 1000 hPa | 0 mm | - | 130 W/m² | - |
| 1777831897 | 5° C | 99% | 999.9 hPa | 1.78 mm | - | 123 W/m² | - |
* Rain latest hour (hover to see other rain measurements)
** Current wind speed in m/s (hover to see current wind gust speed)